#�ϑ�����,���ϕ���,���ϕ���,�ő啗��,�ő啗����������,�ő�u�ԕ���,�ő�u�ԕ�����������
#(�N����),(m/s)   ,(16����),(m/s)   ,(16����)        ,(m/s)       ,(16����)            
2012/5/4 0:01,2,12,2.1,12,3,13
2012/5/4 0:02,1.9,12,2,12,2.2,13
2012/5/4 0:03,1.8,12,1.9,12,2.7,12
2012/5/4 0:04,1.7,12,1.8,12,2.2,10
2012/5/4 0:05,1.7,12,1.7,12,3.6,13
2012/5/4 0:06,1.8,12,1.8,12,3.8,12
2012/5/4 0:07,1.9,13,1.9,12,3.2,14
2012/5/4 0:08,1.9,13,1.9,12,2.7,13
2012/5/4 0:09,1.9,13,1.9,12,3.3,11
2012/5/4 0:10,2,13,2.1,12,3.6,13
2012/5/4 0:11,2.1,13,2.1,13,3.6,14
2012/5/4 0:12,2.1,13,2.1,13,3,15
2012/5/4 0:13,2.1,13,2.1,13,4.2,11
2012/5/4 0:14,2.2,13,2.2,13,4.3,11
2012/5/4 0:15,2.1,13,2.2,13,2.7,14
2012/5/4 0:16,2.1,13,2.1,13,5.2,13
2012/5/4 0:17,2.1,13,2.2,13,5.2,13
2012/5/4 0:18,2.1,13,2.1,13,4.1,13
2012/5/4 0:19,2.1,13,2.1,13,3.2,12
2012/5/4 0:20,2.1,13,2.1,13,4.2,12
2012/5/4 0:21,2.2,13,2.2,13,6,13
2012/5/4 0:22,2.2,13,2.2,13,5,12
2012/5/4 0:23,2.4,13,2.4,13,4.8,13
2012/5/4 0:24,2.4,13,2.5,13,4.4,13
2012/5/4 0:25,2.4,13,2.4,13,4.2,13
2012/5/4 0:26,2.4,13,2.5,13,4.5,13
2012/5/4 0:27,2.5,13,2.5,13,4.5,14
2012/5/4 0:28,2.6,13,2.6,13,5.1,11
2012/5/4 0:29,2.6,13,2.7,13,3.5,12
2012/5/4 0:30,2.6,13,2.6,13,3.5,12
2012/5/4 0:31,2.4,13,2.6,13,3.6,12
2012/5/4 0:32,2.4,13,2.4,13,3.3,12
2012/5/4 0:33,2.2,13,2.4,13,2.2,14
2012/5/4 0:34,2.1,13,2.2,13,3.2,12
2012/5/4 0:35,2.1,13,2.1,13,2.7,14
2012/5/4 0:36,1.9,13,2.1,13,1.5,12
2012/5/4 0:37,1.8,13,1.9,13,2.9,12
2012/5/4 0:38,1.7,13,1.8,13,2.6,12
2012/5/4 0:39,1.6,13,1.7,13,4.1,11
2012/5/4 0:40,1.7,13,1.7,13,4.1,12
2012/5/4 0:41,1.6,12,1.6,13,3.3,12
2012/5/4 0:42,1.6,12,1.6,13,3.7,11
2012/5/4 0:43,1.7,12,1.7,13,4.8,11
2012/5/4 0:44,1.8,12,1.8,13,4.4,13
2012/5/4 0:45,1.9,12,1.9,13,5.5,13
2012/5/4 0:46,2.4,12,2.4,12,9.5,13
2012/5/4 0:47,2.6,12,2.6,12,5.8,13
2012/5/4 0:48,2.8,12,2.8,12,5.2,13
2012/5/4 0:49,3,12,3,12,4.9,13
2012/5/4 0:50,3.1,12,3.1,12,6.2,12
2012/5/4 0:51,3.3,12,3.3,12,5.4,12
2012/5/4 0:52,3.5,12,3.5,12,3.3,12
2012/5/4 0:53,3.3,12,3.4,12,2.2,12
2012/5/4 0:54,3.4,12,3.4,12,5.1,12
2012/5/4 0:55,3.6,12,3.6,12,8.6,13
2012/5/4 0:56,3.5,12,3.6,12,7.6,12
2012/5/4 0:57,3.6,12,3.6,12,8.7,12
2012/5/4 0:58,3.8,12,3.8,12,8.4,11
2012/5/4 0:59,3.9,12,3.9,12,5.8,13
2012/5/4 1:00,4,12,4,12,6.5,13
2012/5/4 1:01,4,12,4,12,5.6,12
2012/5/4 1:02,4,12,4,12,4.2,12
2012/5/4 1:03,4.1,12,4.1,12,3.5,10
2012/5/4 1:04,4.1,12,4.1,12,7.8,12
2012/5/4 1:05,4,12,4.1,12,4.3,13
2012/5/4 1:06,3.8,12,3.9,12,5.1,10
2012/5/4 1:07,3.6,12,3.8,12,3.9,11
2012/5/4 1:08,3.4,12,3.6,12,6.2,11
2012/5/4 1:09,3.4,12,3.4,12,7.2,10
2012/5/4 1:10,3.3,12,3.4,12,6.4,13
2012/5/4 1:11,3.2,12,3.3,12,5.1,14
2012/5/4 1:12,3.4,12,3.4,12,7.7,13
2012/5/4 1:13,3.6,12,3.6,12,8.1,11
2012/5/4 1:14,3.7,12,3.7,12,7.1,10
2012/5/4 1:15,3.8,12,3.8,12,6.1,12
2012/5/4 1:16,3.8,12,3.9,12,5.6,13
2012/5/4 1:17,3.8,12,3.8,12,5,14
2012/5/4 1:18,3.7,13,3.8,12,3.5,13
2012/5/4 1:19,3.6,13,3.6,12,6.4,15
2012/5/4 1:20,3.4,13,3.6,12,4.9,16
2012/5/4 1:21,3.4,13,3.4,12,5.8,15
2012/5/4 1:22,3.1,14,3.4,12,3.5,16
2012/5/4 1:23,2.9,14,3,12,3.9,1
2012/5/4 1:24,2.7,14,2.9,12,4.2,12
2012/5/4 1:25,2.4,14,2.7,12,3.6,12
2012/5/4 1:26,2.3,14,2.4,12,3.8,14
2012/5/4 1:27,2.1,14,2.3,13,2.1,15
2012/5/4 1:28,2.2,14,2.2,13,4.2,15
2012/5/4 1:29,2.2,14,2.2,13,5.8,16
2012/5/4 1:30,2.3,14,2.3,13,4.3,14
2012/5/4 1:31,2.2,14,2.3,14,5.5,14
2012/5/4 1:32,2.2,14,2.2,14,3.8,12
2012/5/4 1:33,2.1,14,2.2,14,2.2,14
2012/5/4 1:34,2.1,14,2.1,14,2.9,13
2012/5/4 1:35,2.1,13,2.2,14,3,12
2012/5/4 1:36,2.1,13,2.1,14,3.5,13
2012/5/4 1:37,2.2,13,2.2,14,3.2,12
2012/5/4 1:38,2.2,13,2.2,14,3.1,13
2012/5/4 1:39,2,12,2.2,14,2.7,9
2012/5/4 1:40,2,12,2,14,4.1,10
2012/5/4 1:41,1.9,12,1.9,14,3.6,10
2012/5/4 1:42,1.9,12,1.9,14,3.9,10
2012/5/4 1:43,2.1,11,2.1,13,4.4,10
2012/5/4 1:44,2.2,11,2.2,13,4.9,10
2012/5/4 1:45,2.2,11,2.2,13,4.4,10
2012/5/4 1:46,2.4,11,2.4,11,4.8,10
2012/5/4 1:47,2.4,10,2.4,11,4.9,9
2012/5/4 1:48,2.6,10,2.6,10,5,9
2012/5/4 1:49,2.8,10,2.8,10,5.2,10
2012/5/4 1:50,3,10,3,10,5.5,10
2012/5/4 1:51,3.2,10,3.2,10,5.4,8
2012/5/4 1:52,3.4,10,3.4,10,6.5,9
2012/5/4 1:53,3.6,10,3.6,10,6,10
2012/5/4 1:54,3.8,10,3.8,10,6.1,10
2012/5/4 1:55,3.8,10,3.9,10,5.7,10
2012/5/4 1:56,4,10,4,10,6,10
2012/5/4 1:57,4.1,10,4.1,10,6.2,10
2012/5/4 1:58,4.1,10,4.2,10,5.7,10
2012/5/4 1:59,4.1,10,4.1,10,6.1,10
2012/5/4 2:00,4.1,10,4.1,10,6.5,9
2012/5/4 2:01,4,10,4.1,10,4.9,9
2012/5/4 2:02,3.9,10,4,10,5.4,10
2012/5/4 2:03,3.9,10,4,10,5.7,9
2012/5/4 2:04,3.8,10,3.9,10,5.7,10
2012/5/4 2:05,3.8,10,3.8,10,6.3,11
2012/5/4 2:06,3.7,10,3.8,10,4.9,9
2012/5/4 2:07,3.7,10,3.7,10,6.9,10
2012/5/4 2:08,3.8,10,3.8,10,6.2,10
2012/5/4 2:09,3.9,10,3.9,10,5.6,9
2012/5/4 2:10,3.9,10,3.9,10,5.8,10
2012/5/4 2:11,4,10,4,10,6,10
2012/5/4 2:12,4,10,4,10,5.5,9
2012/5/4 2:13,3.9,10,4,10,5.1,11
2012/5/4 2:14,3.7,10,3.9,10,4.7,11
2012/5/4 2:15,3.7,10,3.7,10,6,10
2012/5/4 2:16,3.8,10,3.8,10,6.4,10
2012/5/4 2:17,3.7,10,3.8,10,5.1,10
2012/5/4 2:18,3.4,10,3.7,10,3.2,9
2012/5/4 2:19,3.3,10,3.4,10,3.8,12
2012/5/4 2:20,3.2,10,3.3,10,5,10
2012/5/4 2:21,3.1,10,3.2,10,4.1,11
2012/5/4 2:22,3.1,10,3.1,10,5.1,9
2012/5/4 2:23,3,10,3.1,10,4.2,9
2012/5/4 2:24,2.9,10,3,10,4.8,9
2012/5/4 2:25,2.9,10,3,10,4.7,8
2012/5/4 2:26,2.9,10,2.9,10,6.1,10
2012/5/4 2:27,2.8,10,2.8,10,6,9
2012/5/4 2:28,3.1,10,3.1,10,6.1,10
2012/5/4 2:29,3.3,10,3.3,10,6.7,10
2012/5/4 2:30,3.3,10,3.3,10,4.8,9
2012/5/4 2:31,3.4,10,3.4,10,6,10
2012/5/4 2:32,3.4,10,3.4,10,4.7,10
2012/5/4 2:33,3.3,10,3.4,10,3.9,8
2012/5/4 2:34,3.3,10,3.3,10,4.4,11
2012/5/4 2:35,3.3,10,3.3,10,4.4,9
2012/5/4 2:36,3.2,10,3.3,10,5.2,10
2012/5/4 2:37,3.1,10,3.3,10,4.3,10
2012/5/4 2:38,2.9,10,3.1,10,3.9,10
2012/5/4 2:39,2.6,10,2.9,10,3.5,9
2012/5/4 2:40,2.4,10,2.6,10,2.4,10
2012/5/4 2:41,2.1,10,2.4,10,2.5,10
2012/5/4 2:42,2,10,2.1,10,3.5,9
2012/5/4 2:43,2,10,2,10,2.6,10
2012/5/4 2:44,1.8,11,1.9,10,2.1,14
2012/5/4 2:45,1.6,11,1.8,10,1,12
2012/5/4 2:46,1.3,11,1.6,10,1.4,10
2012/5/4 2:47,1.4,11,1.4,10,4.4,10
2012/5/4 2:48,1.3,11,1.4,10,3.5,9
2012/5/4 2:49,1.4,11,1.4,10,5,10
2012/5/4 2:50,1.5,11,1.5,10,3.7,8
2012/5/4 2:51,1.6,11,1.6,10,4.8,8
2012/5/4 2:52,1.7,11,1.7,10,4.7,10
2012/5/4 2:53,1.9,11,1.9,10,4.5,13
2012/5/4 2:54,2,12,2,12,3.2,15
2012/5/4 2:55,2.1,12,2.1,12,2.2,15
2012/5/4 2:56,2,11,2.1,12,0.8,3
2012/5/4 2:57,1.9,11,2,12,3.5,10
2012/5/4 2:58,2,12,2,12,5.8,10
2012/5/4 2:59,1.8,13,2,12,1.9,16
2012/5/4 3:00,1.8,13,1.8,12,2.5,13
2012/5/4 3:01,1.8,14,1.8,12,2.9,13
2012/5/4 3:02,1.6,15,1.8,12,1.8,15
2012/5/4 3:03,1.5,15,1.6,12,3.2,1
2012/5/4 3:04,1.6,15,1.6,12,5.6,16
2012/5/4 3:05,1.7,15,1.7,12,4.3,1
2012/5/4 3:06,1.8,16,1.8,11,2.6,1
2012/5/4 3:07,1.9,16,1.9,11,6.3,15
2012/5/4 3:08,2,16,2,12,5.6,14
2012/5/4 3:09,2,16,2,16,4.2,16
2012/5/4 3:10,2,16,2,16,3.6,15
2012/5/4 3:11,2,16,2,16,2.7,9
2012/5/4 3:12,2,1,2,16,2.6,8
2012/5/4 3:13,2,16,2.1,16,2.6,8
2012/5/4 3:14,2.1,15,2.1,16,9.7,10
2012/5/4 3:15,2.3,10,2.3,10,7.9,9
2012/5/4 3:16,2.5,9,2.5,10,6,9
2012/5/4 3:17,2.4,9,2.5,10,5.7,9
2012/5/4 3:18,2.3,9,2.4,10,2.6,4
2012/5/4 3:19,2.2,8,2.2,10,2.9,10
2012/5/4 3:20,2.3,8,2.3,10,5,10
2012/5/4 3:21,2.4,9,2.4,10,3.5,11
2012/5/4 3:22,2.5,10,2.5,10,4.4,13
2012/5/4 3:23,2.5,10,2.5,10,3.5,9
2012/5/4 3:24,2.3,11,2.6,10,3.6,16
2012/5/4 3:25,2,12,2.2,10,3,10
2012/5/4 3:26,1.9,12,2,10,4.4,9
2012/5/4 3:27,2,12,2,10,4.3,10
2012/5/4 3:28,2.1,12,2.1,10,3.2,11
2012/5/4 3:29,2.2,12,2.2,10,7.2,10
2012/5/4 3:30,2.5,12,2.5,10,8.5,10
2012/5/4 3:31,2.6,11,2.6,10,6.5,11
2012/5/4 3:32,2.9,11,2.9,11,8.3,9
2012/5/4 3:33,3,11,3,11,5,12
2012/5/4 3:34,3.2,11,3.2,11,6,13
2012/5/4 3:35,3.4,11,3.4,11,4.9,12
2012/5/4 3:36,3.5,11,3.5,11,4.2,11
2012/5/4 3:37,3.4,11,3.5,11,3.5,10
2012/5/4 3:38,3.6,11,3.6,11,8.4,10
2012/5/4 3:39,3.6,11,3.8,11,6.8,10
2012/5/4 3:40,3.6,11,3.7,11,9.7,9
2012/5/4 3:41,3.4,11,3.6,11,6.7,10
2012/5/4 3:42,3.1,11,3.4,11,2.9,9
2012/5/4 3:43,3.3,11,3.3,11,5.8,14
2012/5/4 3:44,3.1,11,3.2,11,4.2,11
2012/5/4 3:45,3.3,10,3.3,11,7.4,10
2012/5/4 3:46,3.4,10,3.4,11,6,10
2012/5/4 3:47,3.4,10,3.4,11,5.2,10
2012/5/4 3:48,3.2,10,3.4,11,3,10
2012/5/4 3:49,3.2,10,3.2,11,6.5,10
2012/5/4 3:50,2.9,11,3.2,11,3.5,11
2012/5/4 3:51,2.9,10,2.9,11,5.4,10
2012/5/4 3:52,3.2,11,3.2,10,8.1,9
2012/5/4 3:53,3.2,10,3.2,10,7.5,10
2012/5/4 3:54,3.3,10,3.3,10,6.7,10
2012/5/4 3:55,3,10,3.3,10,8.5,8
2012/5/4 3:56,3.3,10,3.3,10,10.3,10
2012/5/4 3:57,3.7,10,3.7,10,9.8,11
2012/5/4 3:58,4.1,10,4.1,10,8.3,9
2012/5/4 3:59,4.1,10,4.1,10,7.1,9
2012/5/4 4:00,4.5,10,4.5,10,8.1,10
2012/5/4 4:01,4.6,10,4.6,10,8.4,9
2012/5/4 4:02,4.7,10,4.7,10,12.3,10
2012/5/4 4:03,5,10,5,10,8.4,9
2012/5/4 4:04,5,10,5.1,10,7.5,10
2012/5/4 4:05,5.1,10,5.2,10,8.2,10
2012/5/4 4:06,4.6,10,5.1,10,5.2,8
2012/5/4 4:07,4.3,10,4.6,10,5,10
2012/5/4 4:08,3.8,10,4.2,10,2.4,13
2012/5/4 4:09,3.5,10,3.8,10,1.9,1
2012/5/4 4:10,3.2,10,3.5,10,7.5,10
2012/5/4 4:11,3,11,3.2,10,4.3,16
2012/5/4 4:12,2.7,11,3,10,6.1,11
2012/5/4 4:13,2.4,11,2.7,10,7.4,9
2012/5/4 4:14,2.4,11,2.4,10,5.8,10
2012/5/4 4:15,2.1,11,2.3,10,2.4,1
2012/5/4 4:16,2.2,11,2.2,10,5.4,10
2012/5/4 4:17,2.1,12,2.2,10,4.4,12
2012/5/4 4:18,2.2,12,2.2,10,4.8,15
2012/5/4 4:19,2.4,13,2.4,10,4.8,16
2012/5/4 4:20,2.4,13,2.5,10,3.8,16
2012/5/4 4:21,2.3,14,2.4,11,3.3,15
2012/5/4 4:22,2.2,14,2.3,11,1.4,1
2012/5/4 4:23,2,15,2.2,13,2.1,16
2012/5/4 4:24,1.8,15,2,13,2.6,10
2012/5/4 4:25,1.9,15,1.9,13,4.2,13
2012/5/4 4:26,1.8,15,1.9,13,4.5,15
2012/5/4 4:27,1.7,15,1.8,13,1.5,14
2012/5/4 4:28,1.6,16,1.7,13,2.4,16
2012/5/4 4:29,1.5,16,1.6,13,3.2,1
2012/5/4 4:30,1.4,15,1.5,13,1.9,14
2012/5/4 4:31,1.3,15,1.4,14,1.1,16
2012/5/4 4:32,1.3,16,1.3,14,1.3,2
2012/5/4 4:33,1.3,16,1.3,15,2.1,16
2012/5/4 4:34,1.3,16,1.3,15,2.1,14
2012/5/4 4:35,1.2,16,1.3,15,1.3,16
2012/5/4 4:36,1,16,1.2,15,0.9,10
2012/5/4 4:37,1.1,16,1.1,15,2.2,12
2012/5/4 4:38,1.1,15,1.1,16,4.7,11
2012/5/4 4:39,1.3,14,1.3,16,5.4,10
2012/5/4 4:40,1.4,13,1.4,15,4.8,10
2012/5/4 4:41,1.6,12,1.6,12,5.7,10
2012/5/4 4:42,1.7,11,1.7,12,2.1,7
2012/5/4 4:43,1.6,10,1.7,12,1,1
2012/5/4 4:44,1.6,9,1.6,12,1.3,8
2012/5/4 4:45,1.6,9,1.6,12,1.9,7
2012/5/4 4:46,1.7,9,1.7,12,2.6,10
2012/5/4 4:47,1.7,9,1.7,12,2,12
2012/5/4 4:48,1.6,9,1.7,12,3.2,10
2012/5/4 4:49,1.5,10,1.6,12,3.5,10
2012/5/4 4:50,1.3,10,1.5,12,2.6,8
2012/5/4 4:51,1.1,9,1.3,12,1,11
2012/5/4 4:52,1,9,1.1,11,1.3,10
2012/5/4 4:53,1.1,9,1.1,9,2.2,7
2012/5/4 4:54,1.1,9,1.1,9,2.2,6
2012/5/4 4:55,1,9,1.1,9,1,7
2012/5/4 4:56,0.9,10,1,9,1.1,15
2012/5/4 4:57,0.9,10,0.9,9,1.3,13
2012/5/4 4:58,0.8,10,0.9,9,1.3,10
2012/5/4 4:59,0.7,9,0.8,9,1.5,7
2012/5/4 5:00,0.7,9,0.7,9,1.5,8
2012/5/4 5:01,0.7,9,0.7,9,1.1,1
2012/5/4 5:02,0.7,8,0.7,9,1.4,3
2012/5/4 5:03,0.7,7,0.8,9,2.1,3
2012/5/4 5:04,0.7,5,0.7,9,1,4
2012/5/4 5:05,0.8,16,0.8,9,3.1,11
2012/5/4 5:06,0.9,6,0.9,10,3.2,10
2012/5/4 5:07,1.1,6,1.1,6,6.1,9
2012/5/4 5:08,1.1,6,1.1,6,3,10
2012/5/4 5:09,1.3,7,1.3,7,3.9,9
2012/5/4 5:10,1.3,8,1.3,7,1.6,8
2012/5/4 5:11,1.3,9,1.3,7,1,15
2012/5/4 5:12,1.3,10,1.3,7,1,14
2012/5/4 5:13,1.2,10,1.3,7,2.2,9
2012/5/4 5:14,1.3,11,1.3,7,4.1,9
2012/5/4 5:15,1.3,11,1.4,11,2.7,14
2012/5/4 5:16,1.1,11,1.3,11,0.6,6
2012/5/4 5:17,1,12,1.1,11,1.5,13
2012/5/4 5:18,0.9,12,1,11,1.3,13
2012/5/4 5:19,0.8,12,0.9,11,1.4,10
2012/5/4 5:20,0.8,13,0.8,11,0.9,10
2012/5/4 5:21,0.9,13,0.9,11,3,3
2012/5/4 5:22,0.9,13,0.9,11,1.6,9
2012/5/4 5:23,1,12,1,11,2.1,9
2012/5/4 5:24,1,10,1,11,3.6,8
2012/5/4 5:25,1.1,8,1.1,11,3.1,8
2012/5/4 5:26,1.3,9,1.3,9,3,8
2012/5/4 5:27,1.3,8,1.3,9,1.9,7
2012/5/4 5:28,1.3,7,1.3,9,1.3,13
2012/5/4 5:29,1.4,6,1.4,6,2.4,3
2012/5/4 5:30,1.5,6,1.5,6,1.9,7
2012/5/4 5:31,1.4,7,1.5,6,2,5
2012/5/4 5:32,1.5,6,1.5,6,1.9,5
2012/5/4 5:33,1.5,6,1.5,6,1.8,5
2012/5/4 5:34,1.5,6,1.5,6,3.1,8
2012/5/4 5:35,1.4,6,1.5,6,2.2,8
2012/5/4 5:36,1.3,6,1.4,6,1.6,7
2012/5/4 5:37,1.3,6,1.3,6,1.6,14
2012/5/4 5:38,1.4,6,1.4,6,3.1,12
2012/5/4 5:39,1.4,7,1.4,6,3.2,9
2012/5/4 5:40,1.3,7,1.4,6,2.9,11
2012/5/4 5:41,1.5,8,1.5,7,5.2,9
2012/5/4 5:42,1.6,9,1.6,8,4.1,9
2012/5/4 5:43,1.7,9,1.7,9,4.4,9
2012/5/4 5:44,1.6,9,1.7,9,3.1,9
2012/5/4 5:45,1.7,10,1.7,9,3.2,11
2012/5/4 5:46,1.8,10,1.8,10,3.1,10
2012/5/4 5:47,1.9,10,1.9,11,2.1,11
2012/5/4 5:48,1.8,10,1.9,11,2.1,9
2012/5/4 5:49,1.8,10,1.9,11,2.5,9
2012/5/4 5:50,1.8,10,1.8,11,2,10
2012/5/4 5:51,1.6,11,1.8,11,1.6,10
2012/5/4 5:52,1.5,10,1.6,11,2.9,9
2012/5/4 5:53,1.5,11,1.5,11,2.9,11
2012/5/4 5:54,1.5,11,1.5,11,2,9
2012/5/4 5:55,1.4,11,1.5,11,2.1,12
2012/5/4 5:56,1.3,10,1.4,11,1.9,8
2012/5/4 5:57,1.4,10,1.4,10,3.8,9
2012/5/4 5:58,1.5,10,1.5,10,3.9,10
2012/5/4 5:59,1.6,10,1.6,10,4.2,11
2012/5/4 6:00,1.7,10,1.7,10,2.9,11
2012/5/4 6:01,1.7,10,1.7,10,3.2,8
2012/5/4 6:02,1.6,10,1.7,10,1.5,11
2012/5/4 6:03,1.6,11,1.6,10,2.9,16
2012/5/4 6:04,1.6,11,1.6,10,3.2,14
2012/5/4 6:05,1.5,11,1.6,10,1.8,6
2012/5/4 6:06,1.6,10,1.6,10,2.2,8
2012/5/4 6:07,1.5,10,1.6,10,2.7,9
2012/5/4 6:08,1.4,11,1.5,10,2.5,11
2012/5/4 6:09,1.3,10,1.3,10,2.5,9
2012/5/4 6:10,1.3,10,1.3,10,2.9,9
2012/5/4 6:11,1.3,10,1.3,10,2.1,10
2012/5/4 6:12,1.3,10,1.3,10,0.9,10
2012/5/4 6:13,1.3,9,1.3,11,1.1,5
2012/5/4 6:14,1.1,9,1.2,11,0.4,1
2012/5/4 6:15,1,9,1.1,10,0.8,12
2012/5/4 6:16,0.9,10,1,10,0.8,14
2012/5/4 6:17,0.9,9,0.9,10,1.1,7
2012/5/4 6:18,0.9,8,0.9,11,2.5,8
2012/5/4 6:19,0.9,8,0.9,10,2.2,6
2012/5/4 6:20,0.8,6,0.9,10,3,3
2012/5/4 6:21,0.9,4,0.9,10,3.5,4
2012/5/4 6:22,1,4,1,10,2.6,4
2012/5/4 6:23,1,4,1,9,1.6,7
2012/5/4 6:24,1.1,4,1.1,9,1.4,8
2012/5/4 6:25,1.1,4,1.1,4,0.8,2
2012/5/4 6:26,1.2,5,1.2,5,3.7,14
2012/5/4 6:27,1.3,4,1.3,4,3,14
2012/5/4 6:28,1.3,3,1.3,4,2.6,2
2012/5/4 6:29,1.3,3,1.3,4,2.2,6
2012/5/4 6:30,1.3,3,1.3,4,3.5,1
2012/5/4 6:31,1.2,3,1.3,4,3.2,1
2012/5/4 6:32,1.3,3,1.3,4,4.1,3
2012/5/4 6:33,1.5,2,1.5,2,5.1,1
2012/5/4 6:34,1.7,1,1.7,1,3.6,14
2012/5/4 6:35,1.9,1,1.9,1,3.7,12
2012/5/4 6:36,2,1,2,16,3.1,15
2012/5/4 6:37,2.2,1,2.2,1,8.2,2
2012/5/4 6:38,2.4,1,2.4,1,6.8,1
2012/5/4 6:39,2.5,1,2.5,1,7.6,2
2012/5/4 6:40,2.7,16,2.7,16,8.2,14
2012/5/4 6:41,3.1,16,3.1,16,8.7,14
2012/5/4 6:42,3.1,15,3.1,16,6.7,11
2012/5/4 6:43,3,15,3.1,16,4.5,12
2012/5/4 6:44,3.2,15,3.2,15,7.8,1
2012/5/4 6:45,3.3,16,3.3,15,7.8,1
2012/5/4 6:46,3.4,16,3.4,16,5.8,2
2012/5/4 6:47,3.4,16,3.5,16,4.8,16
2012/5/4 6:48,3.4,16,3.4,16,6.4,16
2012/5/4 6:49,3.7,16,3.7,16,10.7,15
2012/5/4 6:50,3.6,16,3.7,16,6.1,15
2012/5/4 6:51,3.5,16,3.6,16,5.5,16
2012/5/4 6:52,3.5,16,3.6,16,9.8,16
2012/5/4 6:53,3.4,16,3.6,16,2.7,16
2012/5/4 6:54,3.2,1,3.4,16,2.1,3
2012/5/4 6:55,3.1,1,3.1,16,4.7,1
2012/5/4 6:56,3.3,1,3.3,16,8.5,15
2012/5/4 6:57,3.1,1,3.3,16,4.3,16
2012/5/4 6:58,3.3,16,3.3,16,9.9,16
2012/5/4 6:59,3.1,16,3.3,16,9.4,15
2012/5/4 7:00,3.2,1,3.2,16,7.1,2
2012/5/4 7:01,3.3,1,3.3,16,7.5,1
2012/5/4 7:02,3.6,1,3.6,16,10.8,15
2012/5/4 7:03,3.8,1,3.8,1,7.1,1
2012/5/4 7:04,3.9,16,3.9,1,4.4,16
2012/5/4 7:05,4.1,16,4.1,16,7.6,15
2012/5/4 7:06,3.9,16,4.1,16,5,15
2012/5/4 7:07,3.9,16,3.9,16,4.7,14
2012/5/4 7:08,3.6,16,3.9,16,5.1,9
2012/5/4 7:09,3.5,16,3.5,16,6.3,8
2012/5/4 7:10,3.4,16,3.5,16,7,2
2012/5/4 7:11,3.3,16,3.4,16,6.9,2
2012/5/4 7:12,2.9,16,3.3,16,4.3,2
2012/5/4 7:13,2.8,16,2.9,16,4.2,9
2012/5/4 7:14,2.9,16,2.9,16,8.6,1
2012/5/4 7:15,2.7,1,2.9,16,5.1,15
2012/5/4 7:16,2.7,1,2.7,16,5.1,14
2012/5/4 7:17,2.6,1,2.6,16,3.2,6
2012/5/4 7:18,2.7,1,2.7,16,5.8,14
2012/5/4 7:19,2.8,1,2.8,16,7.1,15
2012/5/4 7:20,2.6,1,2.8,16,5,16
2012/5/4 7:21,2.5,16,2.6,16,6.9,3
2012/5/4 7:22,2.4,1,2.5,16,2.9,5
2012/5/4 7:23,2.4,1,2.4,16,4.3,3
2012/5/4 7:24,2.2,1,2.5,1,4.3,3
2012/5/4 7:25,2.2,1,2.2,1,5.4,2
2012/5/4 7:26,2.3,1,2.3,1,8.6,15
2012/5/4 7:27,2.4,1,2.4,1,6.8,16
2012/5/4 7:28,2.4,16,2.5,1,5,10
2012/5/4 7:29,2.1,1,2.4,1,4.9,1
2012/5/4 7:30,2.3,2,2.3,16,5.7,2
2012/5/4 7:31,2.4,2,2.4,1,3.9,3
2012/5/4 7:32,2.6,2,2.6,2,6.2,2
2012/5/4 7:33,2.8,2,2.8,2,6.1,3
2012/5/4 7:34,3,2,3,2,6.1,1
2012/5/4 7:35,3.1,2,3.1,2,6.9,1
2012/5/4 7:36,3.1,2,3.1,2,5.7,3
2012/5/4 7:37,3.3,2,3.3,2,8.1,16
2012/5/4 7:38,3.5,2,3.5,2,8.3,16
2012/5/4 7:39,3.4,2,3.5,2,2.2,16
2012/5/4 7:40,3.3,1,3.4,2,2.5,13
2012/5/4 7:41,3.3,1,3.3,2,5.1,12
2012/5/4 7:42,3.1,16,3.3,2,3.5,9
2012/5/4 7:43,2.8,15,3.1,2,2,2
2012/5/4 7:44,2.5,16,2.8,2,2.4,2
2012/5/4 7:45,2.6,16,2.6,2,5.8,2
2012/5/4 7:46,2.4,16,2.6,2,3.9,3
2012/5/4 7:47,2.2,1,2.4,2,3.1,2
2012/5/4 7:48,2,2,2.2,2,4.5,5
2012/5/4 7:49,2.3,2,2.3,2,8.1,2
2012/5/4 7:50,2.5,2,2.5,1,6.3,3
2012/5/4 7:51,2.6,2,2.6,1,8.4,16
2012/5/4 7:52,3.2,2,3.2,2,12.3,15
2012/5/4 7:53,3.4,2,3.4,2,6.4,15
2012/5/4 7:54,3.7,2,3.7,2,7.6,16
2012/5/4 7:55,3.9,2,3.9,2,8.6,15
2012/5/4 7:56,4.1,1,4.1,1,8.7,1
2012/5/4 7:57,4.4,1,4.4,1,10.8,2
2012/5/4 7:58,4.8,1,4.8,1,8.9,16
2012/5/4 7:59,5.1,1,5.1,1,12.3,16
2012/5/4 8:00,5.6,1,5.6,1,14.2,16
2012/5/4 8:01,5.7,1,5.7,1,12.1,1
2012/5/4 8:02,5.4,1,5.7,1,8.3,16
2012/5/4 8:03,5.7,1,5.7,1,9.1,15
2012/5/4 8:04,5.7,16,5.8,1,7.1,14
2012/5/4 8:05,5.4,16,5.7,1,5.6,1
2012/5/4 8:06,5.3,16,5.4,1,7.7,1
2012/5/4 8:07,5.1,16,5.3,1,10.8,15
2012/5/4 8:08,5.2,16,5.2,1,10.7,15
2012/5/4 8:09,4.6,15,5.1,1,5.1,13
2012/5/4 8:10,4,15,4.6,1,4.5,16
2012/5/4 8:11,3.7,15,4,1,6.8,16
2012/5/4 8:12,3.5,15,3.7,1,6,14
2012/5/4 8:13,3.2,15,3.5,1,4.7,13
2012/5/4 8:14,3.3,15,3.3,16,7.1,16
2012/5/4 8:15,3.5,15,3.5,16,9.3,15
2012/5/4 8:16,3.7,14,3.7,16,7.5,12
2012/5/4 8:17,3.6,14,3.7,16,6.3,13
2012/5/4 8:18,3.3,14,3.6,16,4.3,16
2012/5/4 8:19,3.4,15,3.4,15,9,16
2012/5/4 8:20,3.8,15,3.8,15,8.4,16
2012/5/4 8:21,3.8,15,3.8,15,6.9,2
2012/5/4 8:22,4,15,4,15,7.8,15
2012/5/4 8:23,4.3,15,4.3,15,10.5,15
2012/5/4 8:24,4.3,15,4.3,15,7.4,1
2012/5/4 8:25,4.1,16,4.3,15,5.8,16
2012/5/4 8:26,4.2,16,4.2,15,10,16
2012/5/4 8:27,4.1,16,4.3,15,7.5,14
2012/5/4 8:28,4.4,16,4.4,16,11.7,16
2012/5/4 8:29,4.4,16,4.5,16,8.3,1
2012/5/4 8:30,4.4,16,4.4,16,9,1
2012/5/4 8:31,4.5,16,4.5,16,8.4,2
2012/5/4 8:32,4.4,16,4.5,16,6.5,2
2012/5/4 8:33,4.2,16,4.4,16,6.7,1
2012/5/4 8:34,4.1,16,4.2,16,7.5,16
2012/5/4 8:35,4.3,1,4.3,16,11.5,16
2012/5/4 8:36,3.9,1,4.3,16,3,13
2012/5/4 8:37,3.8,1,3.9,16,4.3,14
2012/5/4 8:38,3.5,1,3.8,16,5.6,1
2012/5/4 8:39,3.4,1,3.4,16,5.7,3
2012/5/4 8:40,3,1,3.3,16,3.5,16
2012/5/4 8:41,2.9,1,2.9,16,6.9,16
2012/5/4 8:42,2.7,1,2.9,16,6.7,16
2012/5/4 8:43,2.5,1,2.7,1,3,4
2012/5/4 8:44,2.4,1,2.5,1,4.9,4
2012/5/4 8:45,2.4,1,2.4,1,14.5,15
2012/5/4 8:46,3.1,16,3.1,1,17.5,16
2012/5/4 8:47,3.2,1,3.2,1,7,15
2012/5/4 8:48,3.4,16,3.4,1,8.3,15
2012/5/4 8:49,3.7,16,3.7,16,9.5,1
2012/5/4 8:50,3.6,16,3.7,16,3.3,2
2012/5/4 8:51,3.7,16,3.8,16,8.6,16
2012/5/4 8:52,3.7,1,3.7,16,4.7,1
2012/5/4 8:53,4,16,4,16,8.2,15
2012/5/4 8:54,4.2,16,4.3,16,12.3,15
2012/5/4 8:55,4,16,4.3,16,6,13
2012/5/4 8:56,3.4,16,4,16,5.7,14
2012/5/4 8:57,3.3,16,3.4,16,4.4,10
2012/5/4 8:58,3.2,16,3.3,16,8.1,16
2012/5/4 8:59,3.3,16,3.3,16,9.2,15
2012/5/4 9:00,3.5,16,3.5,16,5.6,2
2012/5/4 9:01,3.6,16,3.6,16,12.4,16
2012/5/4 9:02,4.1,16,4.1,16,13,16
2012/5/4 9:03,4.1,16,4.2,16,10.6,1
2012/5/4 9:04,4,16,4.1,16,7.8,15
2012/5/4 9:05,3.8,16,4,16,5,8
2012/5/4 9:06,3.7,16,3.8,16,3.6,15
2012/5/4 9:07,3.8,16,3.8,16,4.7,5
2012/5/4 9:08,3.7,16,3.8,16,4.1,2
2012/5/4 9:09,3.3,16,3.6,16,3.5,14
2012/5/4 9:10,3.2,16,3.3,16,4.3,14
2012/5/4 9:11,3,16,3.2,16,4.8,4
2012/5/4 9:12,2.4,16,3,16,3.1,3
2012/5/4 9:13,2.3,16,2.3,16,5.2,12
2012/5/4 9:14,2.1,16,2.3,15,4.5,12
2012/5/4 9:15,2.3,15,2.3,16,6.8,8
2012/5/4 9:16,2.3,15,2.3,16,3.8,6
2012/5/4 9:17,2.2,15,2.4,16,4.2,7
2012/5/4 9:18,2.4,13,2.4,16,7.5,10
2012/5/4 9:19,2.6,12,2.6,16,6.7,16
2012/5/4 9:20,2.6,12,2.7,16,6.1,15
2012/5/4 9:21,2.5,13,2.6,16,3.3,2
2012/5/4 9:22,2.7,12,2.7,12,4.7,3
2012/5/4 9:23,2.5,8,2.7,12,1.9,9
2012/5/4 9:24,2.4,3,2.5,12,3.1,4
2012/5/4 9:25,2.1,3,2.4,12,3.1,5
2012/5/4 9:26,2.3,3,2.3,12,5.8,3
2012/5/4 9:27,2.3,2,2.3,12,5.2,2
2012/5/4 9:28,2.1,2,2.3,12,3.1,15
2012/5/4 9:29,2.2,2,2.2,12,7.1,15
2012/5/4 9:30,2.1,2,2.2,12,3.9,15
2012/5/4 9:31,1.9,1,2.1,12,1,7
2012/5/4 9:32,1.8,1,1.9,12,4.2,11
2012/5/4 9:33,2,1,2,7,4.5,10
2012/5/4 9:34,2.2,14,2.2,3,5.2,9
2012/5/4 9:35,2.4,12,2.4,13,3.7,8
2012/5/4 9:36,2.3,11,2.3,13,4.3,9
2012/5/4 9:37,2.3,10,2.3,13,3.6,4
2012/5/4 9:38,2.4,9,2.4,13,4.9,4
2012/5/4 9:39,2.2,8,2.5,9,3,7
2012/5/4 9:40,2.1,8,2.1,9,2.7,11
2012/5/4 9:41,2.3,8,2.3,9,3.3,6
2012/5/4 9:42,2.3,8,2.3,9,4.5,7
2012/5/4 9:43,2.3,7,2.4,9,4.2,4
2012/5/4 9:44,2.2,6,2.3,9,3,4
2012/5/4 9:45,2.1,6,2.2,9,4.1,5
2012/5/4 9:46,2.1,6,2.1,9,4.1,14
2012/5/4 9:47,2,6,2.1,9,4.7,3
2012/5/4 9:48,1.9,5,2.1,9,4.8,3
2012/5/4 9:49,2,5,2,8,2.7,1
2012/5/4 9:50,2.1,5,2.1,8,4.4,10
2012/5/4 9:51,2,5,2.1,8,2.1,12
2012/5/4 9:52,1.9,6,2,8,3.7,8
2012/5/4 9:53,1.7,7,1.8,7,1.9,9
2012/5/4 9:54,1.6,8,1.7,6,2.2,9
2012/5/4 9:55,1.5,8,1.5,6,2.5,9
2012/5/4 9:56,1.6,8,1.6,6,5.1,8
2012/5/4 9:57,1.7,9,1.7,6,6,9
2012/5/4 9:58,1.6,9,1.7,5,2.4,5
2012/5/4 9:59,1.5,9,1.6,5,2.1,8
2012/5/4 10:00,1.4,9,1.5,5,1.8,7
2012/5/4 10:01,1.3,9,1.4,6,2.4,8
2012/5/4 10:02,1.3,8,1.3,6,2.5,16
2012/5/4 10:03,1.4,8,1.4,7,2.9,15
2012/5/4 10:04,1.4,8,1.4,8,1.5,8
2012/5/4 10:05,1.3,8,1.4,8,1.9,7
2012/5/4 10:06,1.2,7,1.3,8,3.1,7
2012/5/4 10:07,1.3,7,1.3,9,5.7,10
2012/5/4 10:08,1.4,8,1.4,9,4.4,11
2012/5/4 10:09,1.4,8,1.4,9,1.8,7
2012/5/4 10:10,1.4,9,1.4,9,3.8,10
2012/5/4 10:11,1.5,9,1.5,9,4.2,10
2012/5/4 10:12,1.6,9,1.6,9,4.5,15
2012/5/4 10:13,1.7,10,1.7,9,4.4,12
2012/5/4 10:14,1.9,8,1.9,8,3.8,3
2012/5/4 10:15,1.9,8,1.9,8,2,4
2012/5/4 10:16,1.8,7,1.9,8,2,5
2012/5/4 10:17,1.7,6,1.8,8,2.9,8
2012/5/4 10:18,1.7,6,1.8,8,3.8,7
2012/5/4 10:19,1.8,8,1.8,8,3.2,8
2012/5/4 10:20,1.8,7,1.9,8,2.6,16
2012/5/4 10:21,1.7,6,1.8,8,2.7,4
2012/5/4 10:22,1.7,5,1.8,8,3.5,3
2012/5/4 10:23,1.8,6,1.8,8,4.5,9
2012/5/4 10:24,1.8,7,1.8,8,4.3,12
2012/5/4 10:25,2,6,2,7,5.7,15
2012/5/4 10:26,2.1,5,2.1,6,3.9,16
2012/5/4 10:27,2.1,1,2.1,6,3.3,3
2012/5/4 10:28,2,3,2.1,6,2.5,3
2012/5/4 10:29,1.9,3,2,6,2.9,9
2012/5/4 10:30,2.1,4,2.1,6,6.1,10
2012/5/4 10:31,2.4,3,2.4,3,8.4,11
2012/5/4 10:32,2.5,9,2.5,9,6.2,11
2012/5/4 10:33,2.4,10,2.5,9,3.9,11
2012/5/4 10:34,2.4,10,2.4,9,4.7,8
2012/5/4 10:35,2.5,9,2.5,9,7.7,11
2012/5/4 10:36,2.6,10,2.6,10,6.3,11
2012/5/4 10:37,2.8,10,2.8,10,9.4,9
2012/5/4 10:38,3.1,10,3.1,10,7.9,10
2012/5/4 10:39,3.4,11,3.4,10,7.2,12
2012/5/4 10:40,3.3,11,3.4,10,4.4,12
2012/5/4 10:41,3,10,3.3,10,4.8,10
2012/5/4 10:42,3,11,3.1,10,5,10
2012/5/4 10:43,3.1,11,3.1,10,3.7,12
2012/5/4 10:44,2.9,11,3.1,10,1.9,9
2012/5/4 10:45,2.7,11,2.9,10,4.8,12
2012/5/4 10:46,2.8,11,2.8,10,8.3,13
2012/5/4 10:47,2.5,12,2.8,10,2.7,14
2012/5/4 10:48,2.3,12,2.5,10,5.5,10
2012/5/4 10:49,2.3,11,2.3,11,7.6,10
2012/5/4 10:50,2.6,11,2.6,10,9.9,9
2012/5/4 10:51,3.1,11,3.1,11,11.6,10
2012/5/4 10:52,3.1,11,3.1,11,8.9,11
2012/5/4 10:53,3.4,11,3.4,11,9.8,10
2012/5/4 10:54,3.8,11,3.8,11,8.9,10
2012/5/4 10:55,4,10,4,11,8.5,9
2012/5/4 10:56,4.2,10,4.2,10,11.6,10
2012/5/4 10:57,4.6,10,4.6,10,10.5,11
2012/5/4 10:58,4.9,10,4.9,10,10.7,10
2012/5/4 10:59,5,10,5,10,10.9,9
2012/5/4 11:00,5.1,10,5.1,10,9.1,9
2012/5/4 11:01,4.9,10,5.1,10,10.2,10
2012/5/4 11:02,5.1,10,5.1,10,13.3,10
2012/5/4 11:03,5.4,10,5.4,10,10.2,10
2012/5/4 11:04,5,10,5.3,10,5.2,8
2012/5/4 11:05,4.8,10,5,10,4.4,9
2012/5/4 11:06,4.6,10,4.7,10,7.4,10
2012/5/4 11:07,4.4,10,4.6,10,7.5,11
2012/5/4 11:08,4.3,10,4.5,10,10.7,11
2012/5/4 11:09,4.4,10,4.4,10,8.9,13
2012/5/4 11:10,4.3,10,4.4,10,6.4,12
2012/5/4 11:11,4.1,11,4.2,10,6.4,9
2012/5/4 11:12,3.6,11,4,10,4.8,9
2012/5/4 11:13,3.3,11,3.6,10,7,9
2012/5/4 11:14,3.7,11,3.7,10,10.3,9
2012/5/4 11:15,3.9,11,3.9,10,7.4,10
2012/5/4 11:16,3.8,11,3.9,10,5.1,10
2012/5/4 11:17,3.6,11,3.8,10,3.3,11
2012/5/4 11:18,3.4,11,3.6,10,4.1,13
2012/5/4 11:19,3.2,11,3.4,10,7.6,10
2012/5/4 11:20,3.1,11,3.2,10,5.2,11
2012/5/4 11:21,3,11,3,11,5.6,13
2012/5/4 11:22,3.1,11,3.1,11,8.5,11
2012/5/4 11:23,3.2,11,3.2,11,6.8,10
2012/5/4 11:24,3,11,3.2,11,7.6,12
2012/5/4 11:25,2.9,11,3,11,5.8,9
2012/5/4 11:26,3.1,11,3.1,11,7.8,11